Regional Weather Roundup
Issued by NWS

Home | Current Version | Previous Version | Graphics & Text | Print | Product List | Glossary On
Versions: 1 2 3 4 5 6 7 8 9 10 11 12 13 14 15 16 17 18 19 20 21 22 23 24 25 26 27 28 29 30 31 32 33 34 35 36 37 38 39 40 41 42 43 44 45 46 47 48 49 50
000
ASUS43 KDTX 011101
RWRMI
MICHIGAN HOURLY REGIONAL WEATHER ROUNDUP
NATIONAL WEATHER SERVICE DETROIT/PONTIAC MI
600 AM EST SUN MAR 01 2015

NOTE: "FAIR" INDICATES FEW OR NO CLOUDS BELOW 12,000 FEET WITH NO
SIGNIFICANT WEATHER AND/OR OBSTRUCTION TO VISIBILITY.

MIZ047>049-052>055-059>063-066>070-074>076-081>083-011200-
SOUTHEAST LOWER MICHIGAN

CITY           SKY/WX    TMP DP  RH WIND       PRES   REMARKS
ADRIAN         CLOUDY    15  11  83 NE5       30.41R WCI   8
ALMA           CLEAR      7   5  91 S3        30.41S
ANN ARBOR      CLOUDY    15  11  83 CALM      30.41R
BAD AXE        LGT SNOW  12   9  89 S3        30.42S
CARO           LGT SNOW  12   9  87 CALM      30.41F
DETROIT CITY   LGT SNOW  17  11  77 E3        30.44R
DETROIT        FLURRIES  16  12  84 CALM      30.43R
FLINT          CLOUDY    14   9  80 CALM      30.41S
GROSSE ILE     LGT SNOW  16  12  86 N3        30.42R
HILLSDALE      CLOUDY    15  12  88 CALM      30.36S
HOWELL         LGT SNOW  11   9  89 CALM      30.39S

CITY           SKY/WX    TMP DP  RH WIND       PRES   REMARKS
JACKSON        MOCLDY    13   9  84 CALM      30.39R
LAMBERTVILLE   LGT SNOW  19  14  79 CALM      30.42S
LANSING        PTCLDY     8   5  87 CALM      30.40S FOG
LAPEER         FLURRIES  12   9  87 CALM      30.41R
MASON          LGT SNOW  10   7  89 CALM      30.39S
MONROE         LGT SNOW  18  16  93 CALM      30.40S
MT. CLEMENS    PTCLDY    13  10  86 E2        30.42R
PONTIAC        LGT SNOW  12   9  87 CALM      30.39R FOG
PORT HOPE        N/A     13   4  67 VRB3      30.42S
PORT HURON     LGT SNOW  10   9  92 CALM      30.44S
TRI CITIES     MOCLDY    13   8  81 S5        30.42S WCI   5
TROY           FLURRIES  17  13  83 CALM      30.44R
SAGINAW HB     FLURRIES  14  10  85 S5        30.42S WCI   6
$$
MIZ043>046-050>051-056>058-064>065-071>073-077>080-011200-
SOUTHWEST LOWER MICHIGAN

CITY           SKY/WX    TMP DP  RH WIND       PRES   REMARKS
BATTLE CREEK   PTCLDY    12   9  87 CALM      30.39S
BENTON HARBOR  MOCLDY    12  10  92 NE3       30.41R
BIG RAPIDS     LGT SNOW  10   5  79 CALM      30.36S
COLDWATER      FLURRIES  15  11  85 CALM      30.38R
FREMONT        LGT SNOW  14  11  87 CALM      30.38F
HOLLAND        CLOUDY    12   8  84 SE6       30.40S FOG     WCI   3
GRAND RAPIDS   PTCLDY     7   4  87 SE3       30.39F FOG
IONIA          FAIR       6   3  86 CALM      30.39S FOG
KALAMAZOO      MOCLDY    12   8  84 CALM      30.39S
LUDINGTON      LGT SNOW  22  16  77 W7        30.38S WCI  13
MARSHALL       PTCLDY    10   8  90 CALM      30.38S
MOUNT PLEASANT CLEAR     10   7  87 CALM      30.40S
MUSKEGON       LGT SNOW  16  12  84 SE3       30.40S FOG
SOUTH HAVEN    CLOUDY    12   9  87 CALM      30.40F
$$
MIZ016>042-011200-
NORTHERN LOWER MICHIGAN

CITY           SKY/WX    TMP DP  RH WIND       PRES   REMARKS
ALPENA         CLOUDY    11   0  61 S6        30.37F WCI   1
BEAVER ISLAND  CLOUDY    17   9  72 SW6       30.31S WCI   8
BELLAIRE       CLOUDY    15   5  63 CALM      30.37R
CHARLEVOIX     CLOUDY    15   6  65 SW3       30.36S
FRANKFORT      LGT SNOW  20  15  81 W10G18    30.35S WCI   9
GAYLORD        CLOUDY    10   1  67 S7        30.29S WCI  -1
GRAYLING       FLURRIES   5  -2  71 CALM      30.33S
HARBOR SPRINGS CLOUDY    14   4  64 W6        30.32S WCI   5
HOUGHTON LAKE  CLOUDY    11   0  61 S3        30.34S
MANISTEE       CLOUDY    16  10  79 CALM      30.38S
OSCODA         CLOUDY    10   2  70 SW5       30.39S WCI   2
PELLSTON       CLOUDY    16   5  62 SW7       30.32F WCI   6
ROGERS CITY    CLOUDY    11   2  67 S7        30.35F WCI   0
TRAVERSE CITY  LGT SNOW  15   9  76 VRB3      30.35R
$$
MIZ007>008-015-011200-
EASTERN UPPER MICHIGAN

CITY           SKY/WX    TMP DP  RH WIND       PRES   REMARKS
KINROSS        CLOUDY    12   9  85 S5        30.29F WCI   4
MACKINAC ISLAN CLOUDY    13   5  71 S8        30.30S WCI   1
NEWBERRY       CLOUDY    12   6  75 SW9       30.26F WCI   0
S. S. MARIE    CLOUDY     6   1  80 E3        30.30S
MUNISING         N/A     12   1  61 S6        30.27S WCI   3
$$
MIZ004>006-011>014-085-011200-
CENTRAL UPPER MICHIGAN

CITY           SKY/WX    TMP DP  RH WIND       PRES   REMARKS
MANISTIQUE     CLOUDY    15   5  65 SW7       30.29S WCI   5
ESCANABA       CLOUDY    14   3  62 SW7       30.32S WCI   4
MENOMINEE      CLEAR     12   1  62 SW7       30.32F WCI   2
SAWYER-GWINN   CLOUDY    10   0  63 SW10      30.21S WCI  -4
$$
MIZ001>003-009>011-084-011200-
WESTERN UPPER MICHIGAN

CITY           SKY/WX    TMP DP  RH WIND       PRES   REMARKS
IRON MOUNTAIN  CLEAR      7  -3  64 S5        30.23F WCI  -2
HOUGHTON       CLOUDY    10   1  67 S3        30.15F
COPPER HARBOR    N/A     12  -1  56 VRB5      30.17F WCI   4
IRONWOOD       CLOUDY    12   7  79 SW10      30.15S WCI  -1
$$

ABBREVIATIONS USED IN REMARKS
   TC - TEMPERATURE IN CELSIUS
  WCI - WIND CHILL INDEX
   HX - HEAT INDEX
  VSB - VISIBILITY




USA.gov is the U.S. government's official web portal to all federal, state and local government web resources and services.